Date,Time,ID,> 0.3,> 0.5,> 0.7,> 1.2,> 5.0,>10.0,RH,TEMP,FLOW
05/05/2007,20:37:49,AEROSE 3,34892,22496,13049,1882,3,0,56.0,79.8,1.00
05/05/2007,20:37:55,AEROSE 3,35289,22863,13113,1849,0,0,56.0,79.8,1.00
05/05/2007,20:38:01,AEROSE 3,35082,22685,13001,1856,1,0,56.0,80.2,1.00
05/05/2007,20:38:07,AEROSE 3,34901,22445,12861,1930,3,0,56.0,79.8,1.00
05/05/2007,20:38:13,AEROSE 3,35805,23096,13173,1950,2,0,56.0,80.2,1.00
05/05/2007,20:38:19,AEROSE 3,36102,23321,13419,2016,1,0,55.6,79.8,1.00
05/05/2007,20:38:25,AEROSE 3,36560,23703,13493,2014,3,0,55.6,79.8,1.00
05/05/2007,20:38:31,AEROSE 3,34475,22091,12644,1778,0,0,55.6,80.2,1.00
05/05/2007,20:38:37,AEROSE 3,35184,22729,13103,1816,2,0,55.2,79.8,1.00
05/05/2007,20:38:43,AEROSE 3,35881,23062,13091,1893,4,0,55.2,79.8,1.00
05/05/2007,20:38:49,AEROSE 3,35998,23238,13155,1866,2,0,55.2,79.8,1.00
05/05/2007,20:38:55,AEROSE 3,37623,24257,13825,2111,2,0,55.6,79.8,1.00
05/05/2007,20:39:01,AEROSE 3,39458,25312,14310,2213,2,0,55.6,79.8,1.00
05/05/2007,20:39:07,AEROSE 3,39058,25059,13999,2107,4,0,56.0,79.8,1.00
05/05/2007,20:39:13,AEROSE 3,35930,23224,13236,1932,2,0,56.0,79.8,1.00
05/05/2007,20:39:19,AEROSE 3,34377,22076,12701,1733,2,0,55.6,79.8,1.00
05/05/2007,20:39:25,AEROSE 3,35228,22678,12936,1876,3,0,55.6,79.8,0.99
05/05/2007,20:39:31,AEROSE 3,38207,24614,13836,2138,3,0,55.6,79.8,1.00
05/05/2007,20:39:37,AEROSE 3,37945,24315,13737,2036,2,0,55.2,79.8,1.00
05/05/2007,20:39:43,AEROSE 3,38332,24715,13994,2121,1,0,55.6,79.8,1.00
05/05/2007,20:39:49,AEROSE 3,37057,24007,13682,1978,3,0,55.6,79.8,1.00
05/05/2007,20:39:55,AEROSE 3,36345,23276,13258,1922,1,0,55.6,79.8,1.00
05/05/2007,20:40:01,AEROSE 3,36729,23475,13402,1992,2,0,55.6,79.8,1.00
05/05/2007,20:40:07,AEROSE 3,35155,22791,13091,1908,0,0,55.6,79.8,1.00
05/05/2007,20:40:13,AEROSE 3,34377,22158,12760,1734,5,0,55.6,79.8,1.00
05/05/2007,20:40:19,AEROSE 3,34119,22192,12925,1704,1,0,56.0,79.8,1.00
05/05/2007,20:40:25,AEROSE 3,34315,22247,12749,1740,4,0,55.6,79.8,1.00
05/05/2007,20:40:31,AEROSE 3,34698,22451,12793,1843,1,0,55.6,79.8,1.00
05/05/2007,20:40:37,AEROSE 3,36221,23322,13324,1923,2,0,55.2,79.8,1.00
05/05/2007,20:40:43,AEROSE 3,36234,23161,13295,1989,1,0,55.2,79.8,1.00
05/05/2007,20:40:49,AEROSE 3,37622,24320,13921,2106,1,0,55.2,79.8,0.99
05/05/2007,20:40:55,AEROSE 3,35880,23028,13038,1918,2,0,55.2,79.8,1.00
05/05/2007,20:41:01,AEROSE 3,32330,20632,11822,1539,3,0,54.8,79.8,1.00
05/05/2007,20:41:07,AEROSE 3,30767,19923,11591,1471,2,0,54.8,79.8,1.00
05/05/2007,20:41:13,AEROSE 3,31526,20471,11884,1585,2,0,54.8,79.8,1.00
05/05/2007,20:41:19,AEROSE 3,33227,21444,12426,1654,0,0,54.8,79.8,1.00
05/05/2007,20:41:25,AEROSE 3,32869,21267,12328,1614,0,0,54.8,79.8,0.99
05/05/2007,20:41:31,AEROSE 3,32546,20939,12170,1597,1,0,54.4,79.8,1.00
05/05/2007,20:41:37,AEROSE 3,32728,21146,12218,1609,1,0,54.4,79.8,1.00
05/05/2007,20:41:43,AEROSE 3,35058,22830,13293,1892,1,0,54.4,79.8,1.00
05/05/2007,20:41:49,AEROSE 3,35169,22762,13098,1819,4,0,54.4,79.8,1.00
05/05/2007,20:52:27,AEROSE 3,39511,25353,14585,2112,0,0,56.4,78.6,1.00
05/05/2007,21:07:27,AEROSE 3,44135,27640,14729,2472,1,0,56.8,77.8,0.99
05/05/2007,21:22:27,AEROSE 3,46973,28990,14696,2633,3,0,57.2,76.6,1.00
05/05/2007,21:37:27,AEROSE 3,47764,29117,14775,2560,1,0,59.2,76.2,0.99
05/05/2007,21:52:27,AEROSE 3,50177,30452,14921,2599,2,0,58.8,76.2,1.00
05/05/2007,22:07:27,AEROSE 3,71350,44834,18724,3981,5,0,58.4,75.8,1.00
05/05/2007,22:22:27,AEROSE 3,55764,33456,14944,2894,1,0,59.6,75.4,1.00
05/05/2007,22:37:27,AEROSE 3,53727,33107,15405,3224,4,0,59.2,75.0,1.00
05/05/2007,22:52:27,AEROSE 3,56164,34962,15702,3378,0,0,59.6,74.6,1.00
05/05/2007,23:07:27,AEROSE 3,53845,33594,15702,3215,3,0,60.0,74.2,1.00
05/05/2007,23:22:27,AEROSE 3,58038,36154,16012,3517,2,0,63.6,75.0,0.99
05/05/2007,23:37:27,AEROSE 3,34886,21722,11872,1956,1,0,60.8,75.8,1.00
05/05/2007,23:52:27,AEROSE 3,37862,23390,12605,2161,1,0,60.4,75.4,1.00
05/06/2007,0:07:27,AEROSE 3,37412,23701,13303,2286,6,0,60.8,75.8,1.00
05/06/2007,0:22:27,AEROSE 3,43866,27024,14035,2582,4,0,62.0,75.8,0.99
05/06/2007,0:37:27,AEROSE 3,40162,24488,12665,2272,3,0,61.2,74.6,0.99
05/06/2007,0:52:27,AEROSE 3,44192,26959,13463,2629,1,0,61.6,74.6,0.99
05/06/2007,1:07:27,AEROSE 3,52373,32620,15843,3413,4,0,61.6,74.2,1.00
05/06/2007,1:22:27,AEROSE 3,49656,30240,14642,3117,1,0,62.8,74.2,1.00
05/06/2007,1:37:27,AEROSE 3,42400,25256,12380,2557,4,0,60.8,74.2,1.00
05/06/2007,1:52:27,AEROSE 3,49302,30015,14166,3049,3,0,62.0,74.2,1.00
05/06/2007,2:07:27,AEROSE 3,45078,27546,13835,2796,2,0,63.2,74.2,1.00
05/06/2007,2:22:27,AEROSE 3,55065,34591,16255,3889,8,0,65.6,75.8,0.99
05/06/2007,2:37:27,AEROSE 3,50428,31197,15287,3348,1,0,65.6,75.0,0.99
05/06/2007,2:52:27,AEROSE 3,48790,31205,16157,3443,3,0,65.6,74.6,1.00
05/06/2007,3:07:27,AEROSE 3,34988,22616,12901,2144,1,0,62.4,74.6,1.00
05/06/2007,3:22:27,AEROSE 3,33221,21579,12250,1969,3,0,61.2,74.2,1.00
05/06/2007,3:37:27,AEROSE 3,27355,17465,9833,1502,1,0,60.0,73.8,0.99
05/06/2007,3:52:27,AEROSE 3,29806,18620,10270,1587,2,0,58.4,73.4,1.00
05/06/2007,4:07:27,AEROSE 3,42509,26469,13722,2284,0,0,62.8,73.4,1.00
05/06/2007,4:22:27,AEROSE 3,45188,27874,14395,2363,2,0,62.4,73.0,1.00
05/06/2007,4:37:27,AEROSE 3,43775,27487,14907,1892,3,0,63.6,73.4,0.99
05/06/2007,4:52:27,AEROSE 3,44391,27778,14864,2042,4,0,63.6,73.4,1.00
05/06/2007,5:07:27,AEROSE 3,42192,25856,13578,1863,2,0,63.6,72.6,1.00
05/06/2007,5:22:27,AEROSE 3,45410,27602,14099,2116,0,0,63.2,72.6,1.00
05/06/2007,5:37:27,AEROSE 3,52628,32236,16275,2575,3,0,63.6,73.4,0.99
05/06/2007,5:52:27,AEROSE 3,46079,28330,14662,2142,0,0,62.8,73.0,1.00
05/06/2007,6:07:27,AEROSE 3,49857,30784,15485,2412,2,0,60.0,73.0,0.99
05/06/2007,6:22:27,AEROSE 3,42041,25716,13405,1778,2,0,60.0,73.4,0.99
05/06/2007,6:37:27,AEROSE 3,42764,25541,13201,1640,5,0,60.4,73.4,1.00
05/06/2007,6:52:27,AEROSE 3,48913,29788,15139,2195,2,0,62.4,73.4,1.00
05/06/2007,7:07:27,AEROSE 3,47742,28686,14250,1895,1,0,64.4,73.4,1.00
05/06/2007,7:22:27,AEROSE 3,40122,24338,12448,1585,1,0,63.2,73.4,1.00
05/06/2007,7:37:27,AEROSE 3,35475,21589,11400,1403,0,0,60.0,73.4,1.00
05/06/2007,7:52:27,AEROSE 3,34264,20739,10931,1182,2,0,59.6,73.4,1.00
05/06/2007,8:07:27,AEROSE 3,36147,22499,12146,1573,1,0,59.6,73.8,1.00
05/06/2007,8:22:27,AEROSE 3,34506,21145,11218,1362,2,0,57.6,73.8,1.00
05/06/2007,8:37:27,AEROSE 3,34498,21231,11263,1479,0,0,57.2,73.4,0.99
05/06/2007,8:52:27,AEROSE 3,38933,24061,12776,1941,4,0,60.4,73.4,1.00
05/06/2007,9:07:27,AEROSE 3,45204,27787,14190,2060,3,0,62.8,73.4,1.00
05/06/2007,9:22:27,AEROSE 3,57398,36171,18281,3059,3,0,65.6,74.2,0.99
05/06/2007,9:37:27,AEROSE 3,50069,30675,15472,2414,6,0,64.4,74.6,1.00
05/06/2007,9:52:27,AEROSE 3,50282,31228,16299,2533,1,0,64.4,75.0,1.00
05/06/2007,10:07:27,AEROSE 3,51353,32124,16605,2765,6,0,63.2,75.0,1.00
05/06/2007,10:22:27,AEROSE 3,41842,26570,14777,2109,6,0,61.6,75.0,1.00
05/06/2007,10:37:27,AEROSE 3,35769,22949,12994,1553,2,0,60.0,75.4,1.00
05/06/2007,10:52:27,AEROSE 3,31123,19709,11245,1157,1,0,58.0,75.4,1.00
05/06/2007,11:07:27,AEROSE 3,31639,19672,10848,1068,1,0,57.2,76.6,1.00
05/06/2007,11:22:27,AEROSE 3,44134,27990,15384,2111,1,0,60.4,76.6,1.00
05/06/2007,11:37:27,AEROSE 3,48170,31567,18109,2344,0,0,60.0,77.0,1.00
05/06/2007,11:52:27,AEROSE 3,49901,32555,18532,2443,4,0,61.2,77.4,0.99
05/06/2007,12:07:27,AEROSE 3,45065,29166,16583,2005,4,0,59.2,77.8,0.99
05/06/2007,12:22:27,AEROSE 3,38162,24615,14078,1538,2,0,55.6,77.8,1.00
05/06/2007,12:37:27,AEROSE 3,36092,23158,12785,1204,3,0,54.4,78.2,1.00
05/06/2007,12:52:27,AEROSE 3,36675,23188,12860,1186,1,0,54.0,77.8,1.00
05/06/2007,13:07:27,AEROSE 3,32772,20486,11307,1045,1,0,54.8,78.6,1.00
05/06/2007,13:22:27,AEROSE 3,34479,21923,12440,1334,1,0,55.2,79.8,0.99
05/06/2007,13:37:27,AEROSE 3,35494,22475,12541,1328,2,0,54.0,79.0,1.00
05/06/2007,13:52:27,AEROSE 3,35993,22628,12794,1383,1,0,54.8,79.4,1.00
05/06/2007,14:07:27,AEROSE 3,39234,24347,13560,1390,2,0,55.6,79.0,0.99
05/06/2007,14:22:27,AEROSE 3,39278,24682,13753,1537,5,0,57.2,78.2,0.99
05/06/2007,14:37:27,AEROSE 3,39729,24858,13571,1413,1,0,57.6,77.8,1.00
05/06/2007,14:52:27,AEROSE 3,45950,29259,16239,1838,3,0,59.6,77.8,1.00
05/06/2007,15:07:27,AEROSE 3,44024,28730,16654,1942,0,0,58.4,78.2,0.99
05/06/2007,15:22:27,AEROSE 3,39701,25124,13974,1385,1,0,57.6,79.8,1.00
05/06/2007,15:37:27,AEROSE 3,44064,28439,15957,1721,3,0,58.8,78.2,1.00
05/06/2007,15:52:27,AEROSE 3,41835,26408,14673,1717,2,0,56.0,77.8,1.00
05/06/2007,16:07:27,AEROSE 3,42006,26574,14606,1864,2,0,56.0,77.8,1.00
05/06/2007,16:22:27,AEROSE 3,38466,23725,12887,1422,3,0,56.0,77.8,1.00
05/06/2007,16:37:27,AEROSE 3,38240,23211,12461,1231,0,0,56.0,78.2,1.00
05/06/2007,16:52:27,AEROSE 3,40232,24869,13436,1386,2,0,56.4,78.2,1.00
05/06/2007,17:07:27,AEROSE 3,41507,25144,13239,1453,3,0,57.2,77.8,1.00
05/06/2007,17:22:27,AEROSE 3,50147,31234,16715,1995,2,0,58.8,77.4,1.00
05/06/2007,17:37:27,AEROSE 3,47881,29847,15933,1832,1,0,58.8,77.4,1.00
05/06/2007,17:52:27,AEROSE 3,53654,34507,19118,2529,3,0,59.6,77.4,1.00
05/06/2007,18:07:27,AEROSE 3,50038,31832,17425,2433,5,0,58.4,77.4,1.00
05/06/2007,18:22:27,AEROSE 3,52748,32455,16837,2305,2,0,58.8,77.4,0.99
05/06/2007,18:37:27,AEROSE 3,51750,32456,17770,2267,3,0,62.0,77.8,1.00
05/06/2007,18:52:27,AEROSE 3,55441,34995,19065,2561,2,0,59.6,77.4,1.00
05/06/2007,19:07:27,AEROSE 3,46506,29351,16284,1899,5,0,59.2,77.0,1.00
05/06/2007,19:22:27,AEROSE 3,47635,29600,16105,1911,3,0,58.4,77.0,1.00
05/06/2007,19:37:27,AEROSE 3,45582,29033,16213,1975,2,0,59.6,77.4,0.99
05/06/2007,19:52:27,AEROSE 3,49656,30631,16100,1687,2,0,60.0,77.0,1.00
05/06/2007,20:07:27,AEROSE 3,56126,34149,17623,2227,6,0,61.2,76.6,1.00
05/06/2007,20:22:27,AEROSE 3,49493,30908,16786,2114,4,0,60.8,76.6,0.99
05/06/2007,20:37:27,AEROSE 3,54737,33614,17271,2077,2,0,62.0,75.8,1.00
05/06/2007,20:52:27,AEROSE 3,59702,36314,18059,2161,3,0,62.8,75.4,1.00
05/06/2007,21:07:27,AEROSE 3,58685,35373,17478,2314,1,0,63.2,75.4,1.00
05/06/2007,21:22:27,AEROSE 3,61987,36966,17627,2134,5,0,62.8,75.4,0.99
05/06/2007,21:37:27,AEROSE 3,59411,35136,16808,2010,4,0,62.0,75.0,0.99
05/06/2007,21:52:27,AEROSE 3,58880,35610,17934,2609,4,0,60.8,75.0,1.00
05/06/2007,22:07:27,AEROSE 3,61113,36832,18327,2496,4,0,62.0,75.0,1.00
05/06/2007,22:22:27,AEROSE 3,64112,38660,18920,2609,2,0,62.4,74.6,0.99
05/06/2007,22:37:27,AEROSE 3,71406,43779,21707,3013,7,0,63.2,75.4,0.99
05/06/2007,22:52:27,AEROSE 3,67368,40813,20280,2379,3,0,64.0,75.0,1.00
05/06/2007,23:07:27,AEROSE 3,64579,40096,21020,2661,5,0,64.8,75.4,1.00
05/06/2007,23:22:27,AEROSE 3,67727,41509,21300,2721,4,0,65.6,75.4,1.00
05/06/2007,23:37:27,AEROSE 3,74257,46609,23547,3292,5,0,65.6,75.0,1.00
05/06/2007,23:52:27,AEROSE 3,76177,47654,24234,3513,6,0,66.4,75.4,1.00
05/07/2007,0:07:27,AEROSE 3,76005,47356,24082,3288,2,0,65.6,75.0,1.00
05/07/2007,0:22:27,AEROSE 3,71019,43727,21956,2934,9,0,66.0,75.0,0.99
05/07/2007,0:37:27,AEROSE 3,83618,52686,25936,4175,2,0,66.4,74.6,1.00
05/07/2007,0:52:27,AEROSE 3,80066,49453,23853,3193,5,0,66.0,74.6,0.99
05/07/2007,1:07:27,AEROSE 3,90057,56971,26972,3978,4,0,66.4,75.0,1.00
05/07/2007,1:22:27,AEROSE 3,94710,59461,26702,4038,3,0,67.2,74.2,1.01
05/07/2007,1:37:27,AEROSE 3,96678,59603,25005,3707,5,0,67.2,74.6,0.99
05/07/2007,1:52:27,AEROSE 3,104030,65797,27440,4747,15,0,66.8,74.2,1.00
05/07/2007,2:07:27,AEROSE 3,102645,64880,27247,4807,1,0,67.2,74.6,1.00
05/07/2007,2:22:27,AEROSE 3,98796,61213,25988,4111,4,0,67.6,74.2,1.00
05/07/2007,2:37:27,AEROSE 3,92250,56446,24559,3780,4,0,66.8,74.6,1.00
05/07/2007,2:52:27,AEROSE 3,95886,58317,24455,3433,6,0,67.6,74.2,1.00
05/07/2007,3:07:27,AEROSE 3,97964,61855,27453,4543,5,0,68.0,74.2,0.99
05/07/2007,3:22:27,AEROSE 3,94278,58476,25341,3945,3,0,66.8,74.2,1.00
05/07/2007,3:37:27,AEROSE 3,96401,60258,25893,4186,5,0,66.8,73.8,1.00
05/07/2007,3:52:27,AEROSE 3,98180,61390,25689,4479,2,0,64.8,73.4,1.00
05/07/2007,4:07:27,AEROSE 3,103283,66340,27514,5074,7,0,66.0,73.8,0.99
05/07/2007,4:22:27,AEROSE 3,96948,60413,25382,4206,2,0,66.4,74.2,0.99
05/07/2007,4:37:27,AEROSE 3,101536,63980,26053,4665,5,0,65.2,73.8,1.00
05/07/2007,4:52:27,AEROSE 3,100440,62769,26155,4344,16,0,65.6,73.8,1.00
05/07/2007,5:07:27,AEROSE 3,104081,64450,25476,4057,8,0,66.0,73.4,1.00
05/07/2007,5:22:27,AEROSE 3,109017,68774,27192,4353,4,0,66.4,73.8,0.99
05/07/2007,5:37:27,AEROSE 3,105191,65112,26053,3714,2,0,66.8,73.8,1.00
05/07/2007,5:52:27,AEROSE 3,108892,70036,29941,5412,3,0,67.2,73.8,1.00
05/07/2007,6:07:27,AEROSE 3,118578,79990,33799,6632,5,0,68.4,74.2,1.00
05/07/2007,6:22:27,AEROSE 3,105510,67562,29866,4785,7,0,67.6,74.2,0.99
05/07/2007,6:37:27,AEROSE 3,111192,73090,31986,5932,8,0,68.0,74.2,1.00
05/07/2007,6:52:27,AEROSE 3,102049,65319,29841,5181,7,0,67.2,73.8,1.00
05/07/2007,7:07:27,AEROSE 3,100042,63506,28988,4990,9,0,66.4,73.8,1.00
05/07/2007,7:22:27,AEROSE 3,105498,67598,29868,5452,13,0,66.0,73.4,1.00
05/07/2007,7:37:27,AEROSE 3,125016,81186,31279,5917,3,0,65.6,73.4,0.99
05/07/2007,7:52:27,AEROSE 3,112656,70823,29375,5307,8,0,65.6,73.4,1.00
05/07/2007,8:07:27,AEROSE 3,102213,63696,28180,4852,6,0,66.8,73.8,1.00
05/07/2007,8:22:27,AEROSE 3,101568,63500,28459,4944,6,0,66.8,73.8,1.00
05/07/2007,8:37:27,AEROSE 3,116560,75543,29296,4991,6,0,65.2,73.0,1.00
05/07/2007,8:52:27,AEROSE 3,112137,72746,30460,5151,12,0,64.8,73.8,1.00
05/07/2007,9:07:27,AEROSE 3,130964,95728,39401,9279,10,0,61.2,73.8,0.99
05/07/2007,9:22:27,AEROSE 3,130078,95892,40204,9677,10,0,61.2,73.0,1.00
05/07/2007,9:37:27,AEROSE 3,126481,91242,38040,8663,13,0,61.6,73.4,0.99
05/07/2007,9:52:27,AEROSE 3,109577,73394,33320,7180,6,0,60.8,73.8,0.99
05/07/2007,10:07:27,AEROSE 3,95859,60953,30030,5543,13,0,62.0,74.6,0.99
05/07/2007,10:22:27,AEROSE 3,99411,64778,32074,6455,6,0,60.0,74.6,1.00
05/07/2007,10:37:27,AEROSE 3,90728,57873,29977,5404,11,1,60.0,75.0,0.99
05/07/2007,10:52:27,AEROSE 3,92576,59361,30833,5707,8,0,56.0,75.4,1.00
05/07/2007,11:07:27,AEROSE 3,87033,55056,29542,5081,12,0,58.8,76.2,1.00
05/07/2007,11:22:27,AEROSE 3,86553,55002,29549,5117,4,0,57.6,76.6,0.99
05/07/2007,11:37:27,AEROSE 3,89090,57075,30589,5364,7,0,58.0,76.6,1.00
05/07/2007,11:52:27,AEROSE 3,94087,60809,31685,5641,9,0,59.6,76.6,1.00
05/07/2007,12:07:27,AEROSE 3,109171,74445,36483,7969,6,0,58.4,76.6,1.00
05/07/2007,12:22:27,AEROSE 3,107302,72528,35954,7801,7,0,54.8,77.0,0.99
05/07/2007,12:37:27,AEROSE 3,77551,51659,30611,4730,10,0,62.4,77.8,1.00
05/07/2007,12:52:27,AEROSE 3,72663,49129,30266,4555,8,0,62.0,78.2,1.00
05/07/2007,13:07:27,AEROSE 3,73052,49857,30808,4626,5,0,60.0,78.2,1.00
05/07/2007,13:22:27,AEROSE 3,71591,48844,29682,3234,11,0,60.0,79.4,1.00
05/07/2007,13:37:27,AEROSE 3,71114,48470,29220,3018,3,0,63.2,80.2,1.00
05/07/2007,13:52:27,AEROSE 3,68583,46434,27748,2610,8,0,61.2,79.8,1.01
05/07/2007,14:07:27,AEROSE 3,73978,50786,30730,3109,5,0,62.0,79.4,1.00
05/07/2007,14:22:27,AEROSE 3,75339,51168,30786,3114,3,0,65.6,80.2,1.00
05/07/2007,14:37:27,AEROSE 3,73981,50608,30413,3011,4,0,62.8,80.2,1.01
05/07/2007,14:52:27,AEROSE 3,67939,46970,28877,2790,2,0,61.6,79.8,1.00
05/07/2007,15:07:27,AEROSE 3,73047,50691,30799,3262,6,0,62.4,79.8,1.00
05/07/2007,15:22:27,AEROSE 3,78624,54762,33453,3599,2,0,65.6,80.6,1.00
05/07/2007,15:37:27,AEROSE 3,79583,55473,33646,3582,4,0,66.8,80.6,1.00
05/07/2007,15:52:27,AEROSE 3,72962,51409,31990,2985,3,0,64.8,80.6,0.99
05/07/2007,16:07:27,AEROSE 3,74448,51789,31839,3019,7,0,64.4,80.2,1.01
05/07/2007,16:22:27,AEROSE 3,79304,55121,33846,3567,5,0,65.6,80.6,1.00
05/07/2007,16:37:27,AEROSE 3,81135,56286,34038,3330,3,0,66.0,81.0,1.00
05/07/2007,16:52:27,AEROSE 3,75196,52656,32571,3015,6,0,66.0,81.0,1.00
05/07/2007,17:07:27,AEROSE 3,77942,54007,33400,3198,2,0,65.6,80.6,1.00
05/07/2007,17:22:27,AEROSE 3,80459,55501,33931,3357,9,0,66.4,80.6,1.00
05/07/2007,17:37:27,AEROSE 3,80883,56466,34598,3535,8,0,67.2,80.6,1.00
05/07/2007,17:52:27,AEROSE 3,79852,55673,34328,3471,2,0,66.0,80.6,1.00
05/07/2007,18:07:27,AEROSE 3,81481,56105,34282,3550,4,0,67.2,80.6,1.00
05/07/2007,18:22:27,AEROSE 3,83843,57913,35092,3867,4,0,67.6,80.6,1.00
05/07/2007,18:37:27,AEROSE 3,82915,57420,35047,3842,6,0,68.0,80.6,1.00
05/07/2007,18:52:27,AEROSE 3,84572,58617,35665,3769,2,0,68.4,80.2,1.00
05/07/2007,19:07:27,AEROSE 3,82627,57501,35407,3724,6,0,68.0,80.2,1.00
05/07/2007,19:22:27,AEROSE 3,83122,57507,35165,3815,4,0,68.4,80.2,1.00
05/07/2007,19:37:27,AEROSE 3,86730,59079,34906,3803,7,0,67.6,80.2,1.00
05/07/2007,19:52:27,AEROSE 3,89605,60080,34379,3952,3,0,68.0,80.2,0.99
05/07/2007,20:07:27,AEROSE 3,89476,59574,34072,3417,9,0,69.2,80.2,1.00
05/07/2007,20:22:27,AEROSE 3,93859,62264,34751,3348,5,0,68.8,80.2,1.00
05/07/2007,20:37:27,AEROSE 3,95942,63437,34901,3661,4,0,69.2,79.8,1.00
05/07/2007,20:52:27,AEROSE 3,98721,65558,35558,3789,9,0,69.6,79.8,1.00
05/07/2007,21:07:27,AEROSE 3,105800,70304,37093,4182,8,0,69.6,79.8,1.00
05/07/2007,21:22:27,AEROSE 3,103503,70880,38924,4477,2,0,69.6,79.8,1.00
05/07/2007,21:37:27,AEROSE 3,97827,65301,35606,3710,8,0,69.6,79.8,0.99
05/07/2007,21:52:27,AEROSE 3,95171,63945,35951,3666,7,0,69.2,79.8,1.00
05/07/2007,22:07:27,AEROSE 3,103346,69572,37028,4291,6,0,69.6,79.8,1.00
05/07/2007,22:22:27,AEROSE 3,96041,64164,35838,3788,5,0,69.2,79.4,1.01
05/07/2007,22:37:27,AEROSE 3,97055,64945,35914,3717,6,0,69.2,79.4,1.00
05/07/2007,22:52:27,AEROSE 3,95942,63846,35198,3734,10,0,69.2,79.8,1.00
05/07/2007,23:07:27,AEROSE 3,99201,65527,35301,4010,5,0,70.0,79.8,1.00
05/07/2007,23:22:27,AEROSE 3,104626,70417,37784,5073,8,0,66.8,79.4,0.99
05/07/2007,23:37:27,AEROSE 3,96262,63302,34916,3618,6,0,67.6,79.8,1.00
05/07/2007,23:52:27,AEROSE 3,90773,60036,34449,3623,6,0,69.2,80.2,1.00
05/08/2007,0:07:27,AEROSE 3,92166,60864,34211,3537,3,0,69.2,79.8,1.00
05/08/2007,0:22:27,AEROSE 3,98365,66502,37406,4290,11,0,69.6,80.2,1.00
05/08/2007,0:37:27,AEROSE 3,96365,63963,34779,3744,9,0,69.6,80.2,1.00
05/08/2007,0:52:27,AEROSE 3,89035,59746,34590,3463,6,0,68.8,79.8,1.00
05/08/2007,1:07:27,AEROSE 3,97574,66383,37489,4588,15,0,69.6,79.8,1.00
05/08/2007,1:22:27,AEROSE 3,99835,67837,38131,4781,7,0,69.2,79.8,1.00
05/08/2007,1:37:27,AEROSE 3,95977,63675,35269,3680,7,0,69.6,80.2,1.00
05/08/2007,1:52:27,AEROSE 3,96975,64611,35939,4070,8,0,69.6,80.2,1.00
05/08/2007,2:07:27,AEROSE 3,91369,60751,34417,3538,9,0,68.4,79.8,0.99
05/08/2007,2:22:27,AEROSE 3,84238,55869,32323,3158,4,0,66.8,79.8,1.00
05/08/2007,2:37:27,AEROSE 3,92497,61007,33672,3696,8,0,66.4,79.4,1.00
05/08/2007,2:52:27,AEROSE 3,86837,57591,33096,3353,5,0,68.4,79.8,1.00
05/08/2007,3:07:27,AEROSE 3,89156,59318,33228,3588,5,0,67.2,79.8,0.99
05/08/2007,3:22:27,AEROSE 3,87246,57713,32195,3272,5,0,68.0,79.8,0.99
05/08/2007,3:37:27,AEROSE 3,86368,56335,31415,3272,5,0,67.6,79.8,1.00
05/08/2007,3:52:27,AEROSE 3,88327,57389,31754,3469,4,0,66.4,79.4,1.00
05/08/2007,4:07:27,AEROSE 3,83477,53789,29852,2884,1,0,64.8,79.0,1.00
05/08/2007,4:22:27,AEROSE 3,86446,56343,30809,3333,3,0,63.6,79.0,1.00
05/08/2007,4:37:27,AEROSE 3,87081,57023,31813,3440,4,0,66.8,79.4,1.00
05/08/2007,4:52:27,AEROSE 3,82664,54195,30510,2965,5,0,63.6,79.0,1.00
05/08/2007,5:07:27,AEROSE 3,85082,56201,31495,3533,7,0,64.0,78.6,1.01
05/08/2007,5:22:27,AEROSE 3,79506,52852,30355,3095,5,0,63.2,78.6,1.00
05/08/2007,5:37:27,AEROSE 3,85450,56974,31929,3548,2,0,64.4,79.0,1.00
05/08/2007,5:52:27,AEROSE 3,78782,54484,32291,3336,5,0,65.6,79.0,1.00
05/08/2007,6:07:27,AEROSE 3,86038,60110,34597,4119,5,0,66.8,79.0,1.00
05/08/2007,6:22:27,AEROSE 3,79920,55196,32554,3302,10,0,66.8,79.0,1.00
05/08/2007,6:37:27,AEROSE 3,75110,51046,30267,2811,5,0,66.4,79.0,1.00
05/08/2007,6:52:27,AEROSE 3,81491,55897,32257,3436,8,0,66.8,79.0,1.01
05/08/2007,7:07:27,AEROSE 3,79657,54446,31945,3285,6,0,65.2,79.0,1.00
05/08/2007,7:22:27,AEROSE 3,82721,56944,33409,3615,2,0,64.0,78.6,1.00
05/08/2007,7:37:27,AEROSE 3,86832,62005,37188,4100,6,0,66.8,79.0,1.00
05/08/2007,7:52:27,AEROSE 3,87808,65954,42545,3971,7,0,64.8,79.0,1.00
05/08/2007,8:07:27,AEROSE 3,91213,68739,43818,4021,11,0,64.0,78.6,1.00
05/08/2007,8:22:27,AEROSE 3,90390,68101,44342,3911,14,0,66.4,79.4,1.00
05/08/2007,8:37:27,AEROSE 3,92092,69304,44675,3834,7,0,66.4,79.4,1.00
05/08/2007,8:52:27,AEROSE 3,89195,67363,43799,3676,13,0,64.8,79.4,1.00
05/08/2007,9:07:27,AEROSE 3,95794,73329,47678,4779,10,0,65.2,79.8,1.00
05/08/2007,9:22:27,AEROSE 3,88785,67425,44673,3876,8,0,64.0,79.8,1.00
05/08/2007,9:37:27,AEROSE 3,89303,67970,45113,3679,11,0,64.4,80.2,1.00
05/08/2007,9:52:27,AEROSE 3,90626,69048,45674,4053,9,0,61.6,80.2,1.00
05/08/2007,10:07:27,AEROSE 3,89436,68739,45770,3747,4,0,63.6,81.4,1.00
05/08/2007,10:22:27,AEROSE 3,90353,69244,46087,3835,8,0,63.6,81.0,1.00
05/08/2007,10:37:27,AEROSE 3,89455,68984,46008,3803,6,0,64.0,81.8,1.00
05/08/2007,10:52:27,AEROSE 3,90009,69085,45669,3569,9,0,64.4,81.8,1.00
05/08/2007,11:07:27,AEROSE 3,91693,69977,45800,3865,10,0,64.0,81.8,1.00
05/08/2007,11:22:27,AEROSE 3,91254,69044,44528,4146,12,0,64.0,81.8,1.00
05/08/2007,11:37:27,AEROSE 3,87570,65182,41488,3766,9,0,63.6,81.8,1.00
05/08/2007,11:52:27,AEROSE 3,88225,65013,40941,3625,7,0,64.0,82.2,0.99
05/08/2007,12:07:27,AEROSE 3,86869,63243,39234,3340,8,0,63.2,82.2,1.00
05/08/2007,12:22:27,AEROSE 3,86254,62536,38420,3245,6,0,60.4,82.2,1.00
05/08/2007,12:37:27,AEROSE 3,83140,60437,38192,3229,9,0,61.2,82.6,1.00
05/08/2007,12:52:27,AEROSE 3,88214,63470,38320,3364,8,0,59.6,81.8,1.00
05/08/2007,13:07:27,AEROSE 3,86243,62406,38220,3218,3,0,61.2,82.6,1.00
05/08/2007,13:22:27,AEROSE 3,86312,62365,38230,3202,6,0,61.6,83.0,1.00
05/08/2007,13:37:27,AEROSE 3,84847,61000,37552,3159,5,0,61.6,82.6,1.00
05/08/2007,13:52:27,AEROSE 3,87448,63651,38944,3374,3,0,62.4,82.6,1.01
05/08/2007,14:07:27,AEROSE 3,87196,63825,39063,3201,5,0,63.2,82.6,1.00
05/08/2007,14:22:27,AEROSE 3,88367,65075,40239,3545,4,0,62.8,82.6,1.00
05/08/2007,14:37:27,AEROSE 3,88294,64973,40391,3456,7,0,62.8,82.6,1.00
05/08/2007,14:52:27,AEROSE 3,86780,63957,39525,3081,7,0,63.2,83.0,1.00
05/08/2007,15:07:27,AEROSE 3,87112,64661,40216,2954,4,0,62.8,82.6,0.99
05/08/2007,15:22:27,AEROSE 3,88383,66769,42287,3272,5,0,63.6,82.6,0.99
05/08/2007,15:37:27,AEROSE 3,91789,69857,44644,3715,6,0,60.8,82.6,1.00
05/08/2007,15:52:27,AEROSE 3,96361,73158,46043,3589,6,0,64.0,83.0,1.00
05/08/2007,16:07:27,AEROSE 3,94306,72002,45799,3429,5,0,63.6,82.6,1.01
05/08/2007,16:22:27,AEROSE 3,94918,73159,47128,3922,10,0,63.2,82.6,1.00
05/08/2007,16:37:27,AEROSE 3,93483,71166,45402,3833,6,0,63.6,82.2,1.00
05/08/2007,16:52:27,AEROSE 3,94911,72359,45350,3858,5,0,64.0,82.2,1.00
05/08/2007,17:07:27,AEROSE 3,90534,68165,43062,3437,6,0,63.6,82.2,1.00
05/08/2007,17:22:27,AEROSE 3,92472,68897,42508,3338,7,0,63.6,81.8,1.00
05/08/2007,17:37:27,AEROSE 3,93157,69148,42414,3230,7,0,64.4,82.2,0.99
05/08/2007,17:52:27,AEROSE 3,92364,68492,42425,3539,6,0,64.8,81.8,0.99
05/08/2007,18:07:27,AEROSE 3,92146,68530,42037,3761,3,0,64.4,81.8,1.00
05/08/2007,18:22:27,AEROSE 3,90364,67206,40910,3343,4,0,65.2,81.8,1.00
05/08/2007,18:37:27,AEROSE 3,96021,72275,43409,4181,9,0,65.2,81.4,1.00
05/08/2007,18:52:27,AEROSE 3,96275,71698,42071,3481,6,0,64.0,81.4,1.00
05/08/2007,19:07:27,AEROSE 3,100185,74774,42989,4010,5,0,62.4,81.0,1.01
05/08/2007,19:22:27,AEROSE 3,99857,74440,42944,3810,5,0,64.4,81.0,1.00
05/08/2007,19:37:27,AEROSE 3,98334,72230,40429,3353,1,0,64.4,80.6,1.00
05/08/2007,19:52:27,AEROSE 3,103456,76807,42670,4185,9,0,65.6,81.0,1.00
05/08/2007,20:07:27,AEROSE 3,102359,75154,40811,3850,6,0,65.6,81.0,1.00
05/08/2007,20:22:27,AEROSE 3,110050,81286,42480,4313,7,0,61.2,79.4,0.99
05/08/2007,20:37:27,AEROSE 3,104904,77388,41539,4119,5,0,62.4,79.8,1.00
05/08/2007,20:52:27,AEROSE 3,108492,79987,42030,4331,6,0,66.0,80.2,1.00
05/08/2007,21:07:27,AEROSE 3,103638,75361,39835,3758,9,0,62.0,79.4,1.00
05/08/2007,21:22:27,AEROSE 3,106435,78796,42343,4321,3,0,65.6,80.2,0.99
05/08/2007,21:37:27,AEROSE 3,102751,75364,40900,3880,3,0,64.0,80.6,0.99